Preview of NWS' New Version of Forecast
This preview is not operational and should not be used for support decisions.

Regional Weather Roundup (RWR)

Issued by National Weather Service (NWS)

                            
000
ASUS45 KABQ 192010
RWRNM 
NEW MEXICO REGIONAL WEATHER ROUNDUP
NATIONAL WEATHER SERVICE ALBUQUERQUE NM
200 PM MDT WED JUN 19 2019

NOTE: "FAIR" MEANS FEW OR NO CLOUDS BELOW 12,000 FEET AGL WITH NO
       SIGNIFICANT WEATHER OR OBSTRUCTIONS TO VISION.

      THIS PRODUCT IS RELEASED AS TWO VERSIONS.  ONE VERSION NEAR
      THE TOP OF THE HOUR CONTAINING PRELIMINARY DATA FROM ALBUQUERQUE
      AND OTHER STATIONS.  A FINAL VERSION WITH ADDITIONAL DATA IS 
      ISSUED ABOUT 10 MINUTES AFTER THE HOUR.
 
NMZ501-503-504-510>518-192100-
NORTHWEST PLATEAU/NORTHCENTRAL MOUNTAINS
  
CITY           SKY/WX    TMP DP  RH WIND       PRES   REMARKS
FARMINGTON     FAIR      85  33  15 W18G29    30.05F                  
LOS ALAMOS       N/A     78  28  16 W20G30    30.16S                  
SANTA FE       FAIR      85  27  12 W17G29    30.07F                  
TAOS           PTSUNNY   76  35  22 NW21G28   30.13F                  
ANGEL FIRE       N/A     67  37  33 W20G29    30.21F                  

$$
NMZ402-403-502-505>509-192100-
WESTCENTRAL MOUNTAINS/SOUTHWEST MOUNTAINS
  
CITY           SKY/WX    TMP DP  RH WIND       PRES   REMARKS
GALLUP         FAIR      81  31  16 W9G18     30.15F                  
GRANTS         FAIR      81  30  15 NW21      30.16F                  
SILVER CITY    FAIR      86  18   8 W14G24    30.12F                  

$$
NMZ407-409-411-412-192100-
SOUTHERN DESERTS
  
CITY           SKY/WX    TMP DP  RH WIND       PRES   REMARKS
DEMING         FAIR      91  18   7 SW14G24   30.03F                  
LAS CRUCES     FAIR      93  23   8 SW10G23   30.03F                  
HOLLOMAN AFB   FAIR      92  25   9 W9        30.01F                  
ALAMOGORDO     FAIR      91  27   9 CALM      30.00F                  
T OR C         FAIR      92  24   8 S6G24     30.01F                  

$$
NMZ519>523-192100-
CENTRAL VALLEYS/CENTRAL HIGHLANDS
  
CITY           SKY/WX    TMP DP  RH WIND       PRES   REMARKS
ALBUQUERQUE    FAIR      87  32  14 NW14G21   30.04F                  
DOUBLE EAGLE   MOSUNNY   86  34  15 W17G29    30.08F                  
MORIARTY ARPT  FAIR      86  31  14 NW18G29   30.10F                  
CLINES CORNERS FAIR      78  33  19 W18G30    30.15F                  
BELEN          FAIR      90  30  11 W20G28    30.04F                  
SOCORRO        FAIR      89  30  12 S9        30.01F                  

$$
NMZ524>526-539-540-192100-
SOUTHCENTRAL MOUNTAINS
  
CITY           SKY/WX    TMP DP  RH WIND       PRES   REMARKS
RUIDOSO        FAIR      81  25  12 W16G29    30.18F                  

$$
NMZ527>531-192100-
NORTHEAST HIGHLANDS/NORTHEAST PLAINS
  
CITY           SKY/WX    TMP DP  RH WIND       PRES   REMARKS
LAS VEGAS      FAIR      80  34  19 W13G23    30.09F                  
RATON          FAIR      82  33  17 W12G21    30.02F                  
CLAYTON        FAIR      81  43  26 N12       29.96F                  

$$
NMZ532>537-192100-
EASTCENTRAL PLAINS
  
CITY           SKY/WX    TMP DP  RH WIND       PRES   REMARKS
SANTA ROSA     FAIR      88  36  15 W13G24    29.94F                  
TUCUMCARI      FAIR      88  49  25 SE8       29.89F                  
CANNON AFB     FAIR      87  46  23 NW8       29.94F                  
CLOVIS AIRPORT FAIR      86  47  25 VRB5      29.95F                  

$$
NMZ028-029-538-192100-
SOUTHEAST PLAINS
  
CITY           SKY/WX    TMP DP  RH WIND       PRES   REMARKS
ROSWELL        FAIR     101  30   8 W22G29    29.88F                  
ARTESIA        FAIR      93  41  16 SE6       29.91F                  
CARLSBAD       FAIR     100  32   9 W21       29.87F                  
HOBBS          SUNNY     97  34  11 W20G25    29.91F                  


$$